Temp
60 60 60 60 61 61 62 63 63 63 63 62 62 62 61 60 57 56 55 55 56 61 67 63 63 70 69 69 69 69 69 66 64 64 62 60 59 57 56 55 55 56 54 55 54 53 54 54 55 56 58 58 58 57 56 55 54 54 53 53 53 52 52 52 52 55 56 56 53 52 51 51 51 50
59 60 60 61 61 62 62 62 63 63 63 62 62 62 62 61 59 58 56 56 57 58 62 66 66 66 66 66 64 67 68 62 65 65 63 61 60 56 55 55 55 55 55 55 55 54 54 54 55 56 58 57 56 55 54 53 53 53 53 52 52 53 53 53 54 55 55 53 52 52 51 51 50 50
60 59 59 60 60 61 62 62 62 62 62 62 62 62 62 62 61 60 58 56 58 61 59 61 65 65 66 66 62 61 63 62 65 65 63 63 59 56 56 55 55 56 55 55 55 55 54 53 53 54 56 56 55 54 54 54 53 53 52 51 52 54 54 54 54 54 54 53 53 52 51 50 50 50
60 59 59 60 60 61 61 61 62 62 62 62 62 63 62 61 61 60 59 57 59 60 60 60 63 65 64 64 62 59 60 61 60 65 63 62 58 58 59 55 55 55 55 55 55 54 53 53 52 52 53 55 53 53 53 53 52 52 51 51 52 54 54 54 53 54 54 53 52 51 50 50 50 50
59 59 59 59 61 61 60 61 62 62 62 62 62 62 61 61 61 60 59 58 58 61 59 60 61 63 64 63 62 60 59 59 59 61 61 60 59 59 58 57 54 54 54 53 53 53 53 53 52 51 51 52 51 51 52 51 51 51 51 50 50 52 54 54 53 54 53 52 51 50 50 49 49 49
58 58 57 58 59 61 61 61 62 63 62 62 62 61 61 61 61 62 60 59 59 59 57 60 59 60 63 61 62 60 59 59 58 59 59 59 60 59 58 58 57 53 54 52 52 52 52 51 51 50 50 50 50 50 50 50 49 50 49 49 49 51 53 53 53 52 52 52 51 50 49 49 49 49
57 57 57 57 58 59 60 60 62 62 63 63 62 62 62 61 62 62 62 60 59 58 59 59 59 58 61 60 60 60 61 60 59 59 58 58 59 60 59 58 58 52 52 51 51 51 51 50 50 50 50 49 49 49 49 49 48 48 47 48 48 49 49 49 50 50 50 50 50 49 49 48 48 49
55 55 55 56 57 58 58 59 60 61 62 62 62 62 62 61 62 62 62 62 61 60 59 58 60 58 59 59 61 61 61 59 58 58 59 59 59 58 59 58 57 53 50 50 50 51 51 50 50 50 49 49 49 48 49 48 48 47 47 47 47 47 47 47 46 47 48 49 50 49 48 48 48 49
56 55 55 56 56 56 56 57 58 59 60 62 62 62 62 61 62 62 62 61 62 61 59 59 59 59 59 60 60 60 59 57 58 58 57 57 57 56 57 57 57 50 50 50 51 50 50 50 49 49 49 49 48 48 48 48 47 47 47 47 47 46 46 45 45 45 45 45 45 47 48 48 48 50
55 55 56 57 57 56 56 57 57 58 59 60 61 62 62 62 61 61 62 61 61 60 60 60 57 58 58 59 58 59 59 56 55 55 56 56 56 54 53 54 52 52 52 52 51 49 49 49 49 49 49 49 48 48 48 47 47 47 47 47 47 46 45 45 44 44 44 43 43 43 45 47 48 49
55 55 56 56 56 56 56 56 57 57 57 58 58 60 61 62 61 58 59 60 60 59 59 60 60 58 59 59 57 58 59 58 57 54 53 51 52 52 52 50 51 51 51 51 50 51 51 50 50 49 49 48 48 48 47 47 47 47 46 46 46 45 45 45 44 44 44 43 43 43 42 44 46 48
53 54 54 55 56 57 57 57 57 57 57 58 57 58 58 59 60 60 58 57 58 58 59 58 58 57 57 58 58 59 58 55 54 56 54 51 49 50 52 51 49 49 50 49 49 50 50 49 49 48 48 48 47 47 47 47 47 46 45 45 45 45 45 44 44 44 44 44 43 43 42 42 43 45
53 53 53 53 54 56 55 51 51 52 54 57 56 56 56 56 55 55 56 55 55 57 58 58 58 56 56 56 55 55 55 54 54 55 55 53 52 50 49 49 51 50 48 49 49 49 49 48 48 48 48 48 47 47 47 47 47 46 45 44 44 45 45 44 45 44 44 44 44 43 43 43 42 42
52 52 52 53 54 52 51 51 49 47 47 48 52 55 56 54 54 53 52 54 55 56 56 57 58 56 55 55 55 56 56 57 56 54 52 51 50 49 47 47 48 50 49 48 47 49 50 48 47 47 46 47 47 46 46 47 47 46 44 44 44 45 45 44 44 44 44 44 44 43 43 42 42 41
49 50 52 52 53 53 52 52 49 47 46 45 45 46 48 50 53 53 52 52 53 55 56 57 58 57 56 56 56 56 57 56 55 54 53 52 48 46 44 43 44 49 49 47 47 47 49 49 45 46 47 46 46 47 47 46 46 45 44 44 44 44 44 44 44 44 44 44 44 43 43 43 43 42
48 49 49 51 51 52 52 53 53 51 49 47 46 46 45 45 45 46 51 53 53 54 55 56 56 57 56 56 56 56 55 54 54 54 53 51 48 47 46 47 45 47 48 47 46 46 48 49 47 46 47 47 47 48 47 45 45 45 45 44 44 44 44 44 44 44 43 43 43 42 42 42 42 41
47 47 48 49 50 51 52 53 52 52 52 49 48 47 48 48 48 46 45 45 52 56 55 55 56 57 57 54 55 57 57 57 54 53 52 50 49 50 49 49 48 45 48 47 46 44 46 47 47 46 47 48 47 47 46 45 45 45 45 45 44 44 44 44 44 43 43 43 42 42 42 42 41 40
46 46 47 47 47 49 50 51 51 51 51 51 51 52 53 54 53 48 47 46 43 47 54 55 56 58 59 56 56 57 56 53 53 53 52 52 49 49 50 49 45 45 48 46 45 45 45 47 46 46 48 48 46 46 46 45 45 45 45 44 44 44 44 44 43 43 43 42 42 42 42 41 41 40
46 46 46 47 47 47 48 49 50 50 50 50 50 50 50 51 51 52 53 54 54 49 49 53 56 59 59 59 57 58 56 57 57 57 56 54 52 49 46 45 46 45 48 49 47 43 46 47 46 47 48 47 46 46 46 45 45 44 44 44 44 44 43 43 43 43 43 42 42 42 41 41 40 40
46 46 46 47 47 48 48 48 45 46 48 48 48 48 49 49 50 51 51 50 50 52 53 54 55 57 58 54 58 56 55 54 56 51 49 50 48 48 47 45 44 43 45 46 45 43 42 45 45 46 47 48 45 46 47 45 45 45 44 44 44 43 43 43 43 43 42 42 42 42 41 41 40 40
46 46 46 46 46 47 48 47 43 43 44 48 48 48 48 48 48 49 52 50 48 48 47 46 47 49 50 49 50 49 49 53 52 50 50 49 49 47 46 45 41 41 43 46 48 47 41 43 45 43 45 46 45 44 46 47 45 45 45 44 43 43 43 43 43 43 42 42 42 42 41 41 40 41
46 46 47 48 47 47 47 45 43 42 44 47 47 47 47 46 46 47 50 52 53 50 49 48 45 45 47 47 47 48 47 47 49 52 49 51 49 48 48 45 42 41 43 46 48 47 43 45 46 44 42 43 43 45 46 46 46 45 44 44 43 43 43 43 43 42 42 42 42 42 42 41 41 40
43 44 46 46 46 46 46 43 43 42 44 47 47 47 47 46 45 47 48 49 51 52 53 54 53 49 47 48 51 51 47 47 50 56 56 52 50 49 47 45 42 41 42 47 50 45 41 42 46 45 41 41 43 44 42 42 43 43 42 42 42 43 42 42 42 42 42 42 42 42 41 41 41 39
42 43 44 45 43 42 41 41 41 42 42 45 46 46 45 45 45 48 48 49 51 51 51 51 52 52 53 52 52 53 50 50 54 55 57 55 53 52 49 47 46 46 45 44 46 44 44 46 46 48 45 40 37 40 41 40 41 41 41 40 40 41 42 42 42 42 42 42 42 42 42 41 41 39
40 41 42 44 44 42 42 41 41 41 41 42 45 46 45 46 47 46 47 47 45 48 48 48 48 50 52 52 53 53 51 51 53 54 54 55 55 55 51 47 45 45 44 46 47 49 43 46 45 46 44 43 40 38 40 40 40 39 40 40 40 40 41 41 42 42 42 41 41 41 41 41 42 41
39 40 41 42 43 42 41 41 41 41 41 40 44 45 43 43 42 45 47 47 47 47 47 46 46 47 49 52 52 52 51 51 52 54 53 52 54 55 55 52 48 45 43 45 46 45 41 41 46 43 42 40 39 39 36 38 39 39 40 39 39 42 42 42 42 41 42 42 41 41 41 41 41 42
39 40 41 43 42 41 41 40 40 40 40 41 43 41 41 41 41 42 45 45 44 44 44 44 44 45 48 50 50 50 50 51 52 52 52 51 52 50 49 49 49 49 45 45 47 45 43 42 43 43 41 41 38 38 38 36 38 39 38 38 40 43 44 43 42 42 42 42 42 43 41 41 40 41
39 40 40 41 40 40 40 40 40 40 40 42 41 40 40 40 41 44 44 43 43 42 41 42 43 44 47 50 50 50 50 50 50 50 49 48 48 47 45 45 44 46 46 46 47 46 45 43 43 44 43 40 38 36 36 41 40 37 37 39 42 44 44 43 43 42 42 42 41 41 39 38 40 40
39 39 38 38 38 38 38 38 38 39 39 39 39 40 40 41 43 43 43 43 43 41 40 41 43 45 47 49 51 51 49 46 45 45 44 44 45 45 45 44 44 45 46 47 46 46 46 44 43 43 42 41 41 41 40 39 40 38 39 41 40 43 44 44 43 42 42 40 41 39 39 38 38 38
37 36 36 36 36 37 37 38 39 39 40 40 39 39 40 42 43 44 43 43 42 41 41 42 43 45 47 45 45 46 46 46 46 45 44 43 42 44 43 42 42 44 45 45 45 46 45 44 44 43 42 42 41 41 40 40 38 39 40 41 43 43 43 44 43 42 42 42 41 41 41 41 42 42
36 37 37 37 37 37 37 37 38 38 39 39 40 41 42 43 43 43 43 43 43 42 42 43 45 45 43 42 42 43 44 44 44 45 44 43 42 43 42 41 40 40 41 43 43 45 45 44 44 45 42 41 41 43 44 43 39 39 41 44 43 39 42 43 42 42 42 42 40 39 39 39 39 40
36 36 36 36 37 37 37 37 36 37 37 38 38 40 41 42 42 42 42 43 44 44 45 46 44 41 41 42 43 42 42 42 42 43 43 42 41 42 42 39 38 37 38 40 41 42 42 44 43 43 42 41 40 41 44 43 42 42 43 43 43 43 43 43 42 42 42 41 39 38 38 38 39 39
34 34 34 34 35 35 35 35 35 36 36 37 38 40 42 43 43 42 41 41 42 44 44 42 41 40 41 41 40 40 39 39 40 40 41 42 41 41 42 39 37 37 36 37 38 40 41 41 41 40 39 40 42 43 42 40 41 44 44 43 42 41 41 42 42 41 40 40 37 35 35 36 39 39
33 33 33 34 34 34 35 35 36 36 36 37 38 38 39 41 42 42 42 42 43 43 42 41 40 40 39 39 39 39 38 38 38 39 40 40 40 39 38 37 37 37 37 37 37 37 38 37 37 38 39 40 41 41 43 44 41 42 43 42 42 40 39 40 40 40 40 37 36 36 36 34 37 35
33 33 33 33 34 35 36 36 36 37 37 37 38 39 40 40 40 41 42 43 42 41 41 40 40 40 40 39 38 38 37 37 37 37 37 38 39 39 39 37 36 36 37 36 36 37 37 36 37 37 38 41 41 42 43 42 42 40 40 40 40 40 38 39 38 40 38 34 36 33 32 32 34 34
33 34 34 35 35 36 36 36 37 37 38 38 38 39 39 40 41 41 42 42 42 41 40 40 39 39 39 39 38 38 37 37 37 37 37 37 38 37 38 37 37 36 37 36 36 37 38 38 40 39 39 38 38 36 37 42 41 40 39 36 37 38 38 38 36 35 36 35 34 33 30 30 33 35
35 35 35 36 36 36 36 37 37 38 38 38 38 39 39 40 41 42 42 41 42 40 40 40 39 39 39 38 37 37 37 37 37 37 37 37 37 37 37 36 36 36 36 36 37 38 38 39 41 41 39 38 37 34 33 35 39 41 41 38 35 36 36 35 35 34 33 35 35 33 30 30 31 35
34 35 34 35 36 37 37 37 37 37 37 38 38 38 38 38 39 40 42 41 40 40 40 40 39 38 38 38 38 37 37 37 37 37 36 37 37 37 37 37 36 36 36 36 36 37 39 40 40 42 41 38 35 33 33 35 34 36 39 40 36 32 34 35 33 32 32 33 35 34 31 32 31 32
33 33 34 35 35 35 35 35 36 36 36 37 37 37 36 37 38 39 39 39 39 39 39 39 38 38 38 38 38 38 37 36 36 36 36 37 37 36 37 37 37 37 37 37 38 40 40 40 40 41 42 38 37 37 37 34 33 35 37 39 37 35 32 34 32 31 32 32 33 33 30 32 34 35
33 33 33 33 34 35 35 35 35 35 35 35 35 36 37 37 38 38 39 38 38 38 39 38 38 37 38 38 38 38 37 37 37 37 37 37 37 37 37 38 38 38 38 38 38 37 38 38 39 39 40 39 38 38 38 37 35 34 36 37 38 37 34 32 32 34 32 33 31 27 30 28 31 29
32 33 33 33 33 34 34 34 35 35 35 35 35 35 35 36 37 37 38 38 38 38 38 38 37 37 38 38 38 38 37 37 37 37 37 37 37 37 37 37 38 38 38 36 36 37 37 38 37 36 38 37 38 39 39 36 34 34 34 34 39 38 37 38 36 32 31 31 29 27 28 29 30 24
32 32 33 33 33 33 34 34 34 35 35 35 36 35 35 36 35 36 36 36 37 37 37 37 38 38 38 38 38 38 37 37 37 37 37 38 38 38 38 38 37 37 37 36 36 36 36 38 37 39 38 39 40 38 34 33 32 32 33 35 35 38 38 38 37 36 35 31 27 30 29 27 23 23
32 32 32 32 33 33 33 33 34 35 35 35 35 36 36 36 36 36 37 36 37 37 37 37 38 38 38 38 39 39 38 37 37 38 38 38 38 38 37 37 36 36 36 36 36 36 37 38 39 39 40 39 37 38 34 33 33 33 32 32 34 34 33 37 37 37 36 37 35 31 30 29 25 25
32 32 32 33 33 33 33 33 33 34 35 35 36 36 36 36 35 36 36 36 37 37 37 38 38 38 38 39 39 39 39 39 38 38 38 38 37 37 36 35 35 35 36 36 36 36 36 37 37 39 39 37 37 36 34 33 33 33 33 32 32 32 34 32 31 34 35 34 35 36 37 35 36 37
32 32 32 32 33 33 33 33 34 34 34 35 36 36 36 36 36 36 37 37 37 38 38 38 38 39 39 39 39 38 38 38 39 38 38 37 37 36 36 36 36 36 37 37 37 36 37 37 37 38 37 37 37 36 35 35 34 33 32 32 32 32 32 34 33 32 32 31 33 35 34 35 34 35
MSLP
1017.72 1017.56 1017.40 1017.20 1016.96 1016.80 1016.68 1016.64 1016.60 1016.56 1016.60 1016.84 1016.92 1016.96 1016.80 1016.84 1017.32 1017.48 1017.36 1017.00 1016.84 1016.24 1015.92 1016.32 1015.56 1015.20 1015.24 1015.24 1015.12 1015.20 1015.36 1015.44 1015.64 1016.00 1016.28 1016.68 1017.16 1017.60 1017.92 1018.32 1018.64 1019.00 1019.48 1019.80 1020.20 1020.60 1020.92 1021.24 1021.44 1021.64 1021.80 1021.96 1022.16 1022.32 1022.48 1022.68 1022.88 1023.08 1023.32 1023.56 1023.72 1023.88 1024.00 1024.12 1024.24 1024.32 1024.48 1024.68 1024.92 1025.12 1025.24 1025.28 1025.28 1025.32
1017.60 1017.40 1017.20 1017.00 1016.80 1016.52 1016.44 1016.32 1016.24 1016.24 1016.24 1016.36 1016.44 1016.56 1016.56 1016.36 1016.72 1016.88 1017.12 1016.72 1016.20 1016.08 1015.72 1015.56 1015.56 1015.24 1015.20 1015.32 1015.44 1015.28 1015.12 1015.24 1015.48 1015.64 1016.00 1016.36 1016.72 1017.16 1017.56 1017.96 1018.24 1018.56 1019.04 1019.40 1019.88 1020.32 1020.72 1021.00 1021.28 1021.56 1021.72 1021.88 1022.12 1022.32 1022.48 1022.68 1022.88 1023.08 1023.32 1023.52 1023.72 1023.88 1024.00 1024.12 1024.20 1024.32 1024.48 1024.68 1024.92 1025.08 1025.20 1025.24 1025.28 1025.28
1017.48 1017.28 1017.08 1016.92 1016.72 1016.40 1016.24 1016.08 1015.96 1015.92 1015.92 1015.96 1016.08 1016.32 1016.24 1016.04 1016.04 1016.28 1016.48 1016.92 1015.68 1015.52 1015.80 1015.48 1015.08 1015.16 1015.16 1015.12 1015.40 1015.56 1015.52 1015.28 1015.08 1015.36 1015.60 1015.92 1016.32 1016.88 1017.28 1017.60 1017.92 1018.24 1018.56 1018.88 1019.44 1019.96 1020.48 1020.80 1021.08 1021.40 1021.68 1021.84 1022.04 1022.28 1022.48 1022.64 1022.84 1023.04 1023.28 1023.48 1023.64 1023.76 1023.92 1024.04 1024.16 1024.28 1024.44 1024.60 1024.80 1024.96 1025.12 1025.20 1025.24 1025.24
1017.28 1017.08 1016.88 1016.68 1016.56 1016.32 1016.08 1015.88 1015.76 1015.68 1015.60 1015.64 1015.68 1015.68 1015.80 1015.92 1016.08 1016.08 1016.20 1016.40 1015.96 1015.28 1015.32 1015.24 1015.16 1015.00 1015.12 1015.04 1015.28 1015.60 1015.56 1015.68 1015.68 1015.12 1015.28 1015.64 1016.24 1016.80 1017.12 1017.48 1017.68 1017.96 1018.36 1018.56 1018.92 1019.48 1020.12 1020.52 1020.84 1021.28 1021.56 1021.72 1021.96 1022.20 1022.40 1022.60 1022.76 1022.96 1023.16 1023.36 1023.52 1023.64 1023.80 1023.92 1024.08 1024.20 1024.36 1024.52 1024.72 1024.88 1025.04 1025.16 1025.20 1025.20
1017.12 1017.00 1016.84 1016.60 1016.36 1016.20 1016.04 1015.80 1015.52 1015.40 1015.32 1015.32 1015.32 1015.36 1015.48 1015.64 1015.72 1015.92 1016.00 1016.04 1015.88 1015.20 1015.04 1015.00 1015.04 1014.88 1014.84 1015.16 1015.12 1015.40 1015.64 1015.72 1015.88 1015.80 1015.68 1015.84 1016.20 1016.60 1016.96 1017.40 1017.68 1017.80 1018.12 1018.44 1018.68 1018.96 1019.48 1020.04 1020.52 1020.96 1021.36 1021.60 1021.84 1022.08 1022.28 1022.44 1022.64 1022.84 1023.08 1023.24 1023.40 1023.52 1023.68 1023.80 1024.00 1024.12 1024.28 1024.48 1024.64 1024.80 1024.96 1025.04 1025.12 1025.12
1016.96 1016.84 1016.72 1016.56 1016.40 1016.20 1016.04 1015.76 1015.52 1015.24 1015.08 1015.04 1015.08 1015.04 1015.16 1015.24 1015.28 1015.32 1015.64 1015.60 1015.72 1015.24 1015.16 1015.04 1015.00 1015.00 1014.72 1015.04 1015.04 1015.24 1015.56 1015.72 1015.96 1016.08 1016.04 1016.12 1016.24 1016.44 1016.80 1017.24 1017.56 1017.84 1018.04 1018.36 1018.64 1018.80 1019.12 1019.64 1020.12 1020.48 1021.00 1021.36 1021.64 1021.84 1022.08 1022.32 1022.52 1022.76 1022.96 1023.12 1023.28 1023.40 1023.52 1023.72 1023.88 1024.08 1024.24 1024.40 1024.56 1024.72 1024.84 1024.96 1025.04 1025.04
1016.76 1016.64 1016.52 1016.36 1016.24 1016.12 1015.96 1015.72 1015.48 1015.20 1014.96 1014.72 1014.68 1014.64 1014.68 1014.76 1014.76 1014.80 1015.00 1015.28 1015.28 1015.28 1014.92 1014.84 1015.04 1015.04 1014.84 1014.72 1015.00 1015.08 1015.20 1015.52 1015.92 1016.36 1016.28 1016.08 1016.28 1016.48 1016.64 1016.92 1017.28 1017.64 1017.92 1018.28 1018.64 1018.80 1019.04 1019.44 1019.88 1020.28 1020.64 1021.08 1021.40 1021.68 1021.92 1022.16 1022.40 1022.64 1022.84 1023.00 1023.12 1023.28 1023.44 1023.64 1023.84 1024.00 1024.20 1024.32 1024.48 1024.60 1024.72 1024.88 1024.96 1024.96
1016.60 1016.48 1016.40 1016.20 1016.08 1015.92 1015.84 1015.68 1015.52 1015.24 1014.96 1014.68 1014.48 1014.32 1014.24 1014.32 1014.32 1014.32 1014.44 1014.52 1014.72 1014.72 1014.72 1014.64 1014.64 1014.72 1014.76 1014.76 1014.60 1014.76 1014.92 1015.20 1015.76 1016.16 1016.48 1016.40 1016.32 1016.40 1016.60 1016.84 1017.16 1017.64 1018.04 1018.32 1018.60 1018.92 1019.04 1019.16 1019.56 1020.12 1020.56 1020.92 1021.28 1021.56 1021.76 1022.00 1022.28 1022.52 1022.76 1022.92 1023.00 1023.16 1023.36 1023.56 1023.76 1023.96 1024.16 1024.28 1024.40 1024.52 1024.64 1024.80 1024.84 1024.84
1016.40 1016.24 1016.12 1015.96 1015.88 1015.80 1015.68 1015.52 1015.44 1015.24 1015.04 1014.68 1014.40 1014.24 1014.08 1014.00 1013.88 1013.88 1013.96 1014.08 1014.24 1014.36 1014.40 1014.24 1014.20 1014.28 1014.36 1014.28 1014.40 1014.52 1014.96 1015.52 1015.88 1016.08 1016.32 1016.56 1016.52 1016.56 1016.68 1016.92 1017.32 1017.80 1018.00 1018.16 1018.32 1018.64 1018.92 1019.16 1019.48 1019.96 1020.44 1020.84 1021.16 1021.44 1021.68 1021.92 1022.16 1022.40 1022.64 1022.84 1022.96 1023.12 1023.32 1023.48 1023.68 1023.92 1024.08 1024.24 1024.44 1024.52 1024.60 1024.68 1024.76 1024.76
1016.36 1016.20 1015.96 1015.72 1015.56 1015.52 1015.48 1015.32 1015.16 1015.00 1014.84 1014.68 1014.44 1014.16 1013.96 1013.84 1013.76 1013.56 1013.48 1013.60 1013.76 1013.92 1013.84 1013.88 1014.08 1014.12 1014.28 1014.32 1014.28 1014.28 1014.44 1015.08 1015.84 1016.24 1016.44 1016.76 1016.96 1016.96 1017.12 1017.32 1017.56 1017.80 1018.08 1018.44 1018.76 1018.92 1019.04 1019.16 1019.44 1019.88 1020.28 1020.68 1021.04 1021.28 1021.56 1021.80 1022.04 1022.24 1022.52 1022.76 1022.92 1023.08 1023.28 1023.48 1023.64 1023.84 1024.00 1024.20 1024.36 1024.48 1024.56 1024.64 1024.68 1024.68
1016.08 1015.96 1015.84 1015.64 1015.48 1015.32 1015.12 1015.04 1014.92 1014.80 1014.68 1014.56 1014.40 1014.20 1013.96 1013.68 1013.60 1013.72 1013.56 1013.24 1013.28 1013.44 1013.52 1013.40 1013.40 1013.68 1013.76 1013.84 1014.20 1014.12 1014.08 1014.52 1014.76 1015.56 1016.52 1016.84 1016.88 1016.88 1016.72 1017.16 1017.72 1018.00 1018.20 1018.32 1018.44 1018.60 1018.88 1019.28 1019.64 1019.88 1020.12 1020.52 1020.88 1021.16 1021.40 1021.68 1021.92 1022.12 1022.36 1022.64 1022.88 1023.04 1023.28 1023.44 1023.60 1023.76 1023.92 1024.08 1024.28 1024.36 1024.48 1024.60 1024.64 1024.64
1016.08 1016.04 1015.88 1015.72 1015.48 1015.24 1015.00 1014.84 1014.64 1014.56 1014.48 1014.36 1014.24 1014.20 1014.24 1014.08 1013.88 1013.52 1013.40 1013.48 1013.36 1013.16 1013.20 1013.16 1013.16 1013.16 1013.40 1013.60 1013.56 1013.80 1014.24 1014.96 1015.40 1015.16 1015.20 1015.88 1016.60 1016.80 1016.92 1016.88 1017.16 1017.80 1018.20 1018.40 1018.88 1019.20 1019.32 1019.48 1019.72 1019.96 1020.20 1020.44 1020.76 1021.04 1021.28 1021.56 1021.80 1022.04 1022.36 1022.56 1022.80 1023.00 1023.20 1023.44 1023.56 1023.64 1023.80 1024.00 1024.12 1024.24 1024.36 1024.48 1024.60 1024.60
1015.80 1015.76 1015.68 1015.60 1015.48 1015.36 1015.24 1015.16 1015.04 1014.80 1014.48 1014.24 1014.04 1013.92 1014.16 1014.20 1014.28 1014.16 1013.88 1013.64 1013.64 1013.32 1012.92 1012.68 1012.64 1012.92 1013.08 1013.08 1013.40 1013.72 1013.92 1014.28 1014.20 1014.56 1014.88 1015.08 1015.52 1016.20 1016.92 1017.32 1017.52 1017.52 1017.64 1018.28 1018.84 1019.08 1019.12 1019.48 1019.84 1020.16 1020.48 1020.64 1020.76 1020.92 1021.04 1021.40 1021.64 1021.92 1022.24 1022.52 1022.76 1022.84 1023.08 1023.32 1023.44 1023.52 1023.68 1023.84 1024.00 1024.12 1024.24 1024.32 1024.44 1024.52
1015.68 1015.52 1015.44 1015.24 1015.12 1015.04 1015.00 1014.96 1014.80 1014.68 1014.56 1014.48 1014.40 1014.08 1013.92 1013.92 1014.12 1014.16 1014.16 1013.88 1013.48 1013.28 1013.04 1012.60 1012.40 1012.52 1012.56 1012.84 1013.00 1013.00 1012.96 1013.20 1013.88 1014.64 1015.16 1015.40 1015.84 1016.48 1017.08 1017.64 1017.72 1017.84 1017.88 1018.08 1018.68 1018.92 1019.04 1019.08 1019.52 1019.92 1020.16 1020.44 1020.68 1020.84 1021.04 1021.16 1021.40 1021.76 1022.08 1022.40 1022.64 1022.72 1022.92 1023.20 1023.32 1023.44 1023.60 1023.76 1023.88 1024.00 1024.12 1024.20 1024.28 1024.36
1015.60 1015.36 1015.20 1015.04 1014.88 1014.72 1014.64 1014.56 1014.52 1014.44 1014.36 1014.24 1014.12 1014.04 1014.00 1013.92 1013.92 1013.80 1013.76 1013.60 1013.48 1013.20 1012.72 1012.44 1012.28 1011.92 1011.96 1012.04 1012.32 1012.36 1012.60 1013.12 1013.48 1013.80 1014.28 1014.76 1015.80 1016.32 1016.80 1017.12 1017.60 1017.64 1017.48 1017.76 1018.12 1018.64 1018.84 1018.96 1019.24 1019.56 1019.84 1020.08 1020.36 1020.60 1020.68 1020.96 1021.24 1021.60 1021.92 1022.16 1022.44 1022.60 1022.80 1023.04 1023.20 1023.32 1023.48 1023.60 1023.76 1023.88 1024.00 1024.08 1024.16 1024.20
1015.48 1015.24 1015.04 1014.84 1014.68 1014.48 1014.36 1014.32 1014.20 1014.12 1014.04 1013.96 1013.84 1013.72 1013.52 1013.40 1013.48 1013.64 1013.60 1013.28 1013.12 1012.84 1012.64 1012.32 1011.96 1011.88 1011.60 1011.48 1011.72 1012.04 1012.48 1012.88 1013.24 1013.40 1013.72 1014.24 1014.92 1015.68 1015.72 1015.36 1015.60 1015.56 1016.64 1017.20 1017.68 1018.12 1018.72 1018.96 1019.16 1019.44 1019.48 1019.76 1019.96 1020.12 1020.44 1020.80 1021.08 1021.44 1021.68 1021.96 1022.20 1022.40 1022.64 1022.88 1023.04 1023.16 1023.32 1023.48 1023.60 1023.76 1023.88 1023.96 1024.00 1024.08
1015.32 1015.16 1014.92 1014.64 1014.44 1014.20 1014.08 1014.00 1013.88 1013.84 1013.72 1013.64 1013.56 1013.44 1013.28 1013.08 1012.80 1012.56 1012.64 1012.88 1012.76 1012.36 1012.24 1011.96 1011.68 1011.44 1011.36 1011.68 1011.72 1011.48 1011.40 1011.76 1012.32 1013.04 1013.72 1014.04 1014.24 1013.96 1014.12 1014.04 1014.48 1015.56 1015.60 1016.48 1017.28 1017.64 1018.12 1018.60 1018.72 1018.84 1019.04 1019.40 1019.84 1020.16 1020.44 1020.64 1020.88 1021.12 1021.44 1021.72 1021.92 1022.16 1022.40 1022.64 1022.84 1023.00 1023.16 1023.32 1023.48 1023.64 1023.76 1023.84 1023.92 1024.00
1015.04 1014.92 1014.76 1014.52 1014.20 1014.04 1013.92 1013.72 1013.68 1013.60 1013.48 1013.40 1013.28 1013.12 1012.96 1012.68 1012.36 1012.24 1012.04 1011.92 1012.08 1012.20 1011.92 1011.52 1011.20 1010.76 1011.04 1011.00 1011.20 1011.60 1011.76 1012.00 1012.00 1012.40 1012.64 1013.08 1013.56 1013.72 1013.52 1013.80 1014.68 1015.52 1016.04 1016.16 1016.68 1017.52 1018.00 1018.08 1018.36 1018.48 1018.64 1019.16 1019.68 1019.96 1020.20 1020.52 1020.72 1020.92 1021.16 1021.48 1021.80 1022.00 1022.20 1022.40 1022.64 1022.84 1023.00 1023.16 1023.32 1023.48 1023.60 1023.68 1023.84 1023.88
1014.60 1014.48 1014.36 1014.16 1013.92 1013.72 1013.64 1013.48 1013.48 1013.40 1013.24 1013.20 1013.00 1012.88 1012.76 1012.64 1012.44 1012.24 1011.96 1011.72 1011.56 1011.72 1011.92 1011.56 1010.88 1010.40 1010.40 1010.40 1010.52 1010.80 1011.40 1011.32 1011.04 1010.84 1010.72 1011.28 1012.00 1013.20 1014.16 1014.72 1015.28 1015.92 1016.00 1016.20 1016.52 1016.68 1017.04 1018.00 1018.28 1018.12 1018.44 1018.92 1019.44 1019.80 1020.12 1020.32 1020.52 1020.68 1021.00 1021.32 1021.60 1021.84 1022.04 1022.24 1022.48 1022.68 1022.84 1023.00 1023.20 1023.32 1023.40 1023.56 1023.68 1023.72
1014.08 1014.00 1013.88 1013.72 1013.44 1013.20 1013.04 1012.96 1013.12 1013.08 1013.16 1013.00 1012.68 1012.48 1012.28 1012.24 1012.08 1011.84 1011.48 1011.48 1011.32 1011.28 1011.28 1011.12 1010.80 1010.24 1009.80 1009.68 1009.84 1010.04 1010.44 1011.16 1011.64 1012.00 1012.32 1012.64 1013.20 1013.56 1014.08 1014.64 1015.32 1015.68 1016.00 1016.12 1016.04 1016.32 1017.08 1017.48 1017.68 1017.88 1018.40 1018.76 1019.24 1019.60 1019.84 1020.04 1020.24 1020.52 1020.88 1021.20 1021.48 1021.72 1021.92 1022.12 1022.32 1022.52 1022.68 1022.84 1023.04 1023.16 1023.24 1023.40 1023.56 1023.56
1013.48 1013.40 1013.32 1013.24 1013.00 1012.76 1012.52 1012.52 1012.60 1012.60 1012.80 1012.60 1012.28 1012.04 1011.80 1011.68 1011.64 1011.24 1011.08 1011.12 1010.92 1010.72 1010.56 1010.52 1010.32 1009.92 1009.52 1009.20 1009.16 1009.36 1009.52 1009.88 1010.72 1011.84 1012.60 1013.08 1013.20 1013.68 1014.00 1014.52 1015.28 1015.28 1015.64 1015.76 1015.60 1015.76 1016.76 1017.12 1017.20 1017.76 1018.08 1018.36 1018.80 1019.32 1019.48 1019.72 1020.04 1020.36 1020.72 1021.04 1021.36 1021.64 1021.84 1022.04 1022.24 1022.40 1022.52 1022.72 1022.88 1023.00 1023.08 1023.24 1023.36 1023.44
1012.96 1012.76 1012.68 1012.56 1012.36 1012.16 1011.96 1012.08 1012.16 1012.20 1012.32 1012.04 1011.84 1011.76 1011.44 1011.20 1011.04 1010.68 1010.96 1011.00 1010.48 1010.24 1010.04 1009.80 1009.76 1009.60 1009.28 1008.88 1008.72 1008.80 1009.08 1009.72 1010.28 1010.88 1011.44 1011.88 1012.48 1012.52 1012.60 1013.20 1014.20 1015.04 1015.36 1015.00 1015.28 1015.96 1016.12 1016.88 1017.08 1017.52 1018.16 1018.56 1018.80 1018.96 1019.24 1019.48 1019.76 1020.12 1020.52 1020.84 1021.16 1021.48 1021.72 1021.96 1022.12 1022.24 1022.40 1022.60 1022.76 1022.80 1022.88 1023.08 1023.24 1023.44
1012.72 1012.32 1012.08 1011.92 1011.80 1011.60 1011.44 1011.60 1011.64 1011.72 1011.76 1011.52 1011.40 1011.24 1011.04 1010.60 1010.32 1010.16 1010.92 1010.80 1010.44 1010.08 1009.68 1009.32 1009.12 1009.04 1009.04 1009.20 1008.96 1008.52 1008.64 1009.04 1009.08 1009.16 1009.76 1011.16 1012.04 1012.28 1012.72 1013.28 1014.56 1015.40 1015.20 1014.64 1014.84 1015.36 1016.16 1016.72 1016.80 1016.92 1018.12 1018.48 1018.64 1018.88 1019.12 1019.44 1019.64 1020.04 1020.56 1020.96 1021.24 1021.44 1021.68 1021.88 1022.04 1022.12 1022.28 1022.48 1022.52 1022.60 1022.72 1022.88 1023.16 1023.28
1012.16 1011.96 1011.52 1011.24 1011.12 1011.00 1010.96 1010.96 1011.00 1011.04 1011.12 1011.04 1010.92 1010.96 1010.64 1010.20 1009.68 1010.08 1010.44 1010.16 1010.24 1010.00 1009.84 1009.52 1009.24 1008.92 1008.64 1008.52 1008.28 1008.28 1008.60 1008.68 1008.52 1008.68 1008.88 1009.44 1010.12 1011.00 1011.64 1012.36 1012.40 1011.92 1011.88 1013.32 1014.28 1014.72 1015.52 1015.72 1015.88 1016.04 1015.84 1016.68 1018.20 1018.84 1019.28 1019.56 1019.68 1020.00 1020.44 1020.88 1021.16 1021.32 1021.60 1021.84 1021.96 1022.00 1022.12 1022.16 1022.28 1022.36 1022.52 1022.72 1022.96 1023.12
1011.84 1011.44 1011.16 1010.76 1010.56 1010.48 1010.32 1010.32 1010.28 1010.28 1010.32 1010.36 1010.36 1010.20 1009.80 1009.48 1009.64 1010.16 1010.00 1009.88 1010.20 1010.04 1009.76 1009.60 1009.44 1009.08 1008.68 1008.40 1008.00 1007.56 1007.96 1008.32 1008.36 1008.40 1008.44 1008.64 1009.08 1009.60 1010.52 1011.44 1012.00 1011.68 1012.12 1012.64 1013.32 1014.20 1015.08 1015.12 1015.40 1015.88 1016.24 1016.44 1017.40 1018.48 1019.08 1019.40 1019.84 1020.12 1020.40 1020.68 1021.00 1021.32 1021.60 1021.68 1021.72 1021.72 1021.80 1021.96 1022.04 1022.16 1022.32 1022.48 1022.56 1022.72
1011.48 1011.04 1010.68 1010.28 1010.08 1009.96 1009.76 1009.68 1009.60 1009.56 1009.60 1009.64 1009.68 1009.24 1009.16 1009.44 1009.76 1009.68 1009.64 1009.76 1009.88 1009.80 1009.76 1009.64 1009.44 1009.08 1008.68 1008.12 1007.88 1007.56 1007.44 1007.76 1007.92 1008.04 1008.32 1008.48 1008.64 1008.80 1008.96 1009.56 1010.56 1011.48 1011.84 1012.40 1012.80 1013.36 1014.40 1015.72 1015.52 1015.80 1016.16 1016.60 1017.76 1017.80 1018.84 1019.60 1019.92 1020.24 1020.40 1020.64 1020.88 1021.12 1021.24 1021.36 1021.48 1021.44 1021.56 1021.72 1021.84 1021.96 1021.96 1021.96 1022.08 1022.24
1010.84 1010.44 1010.04 1009.68 1009.52 1009.36 1009.20 1009.12 1009.00 1008.96 1008.92 1009.00 1008.80 1008.72 1009.00 1009.08 1009.24 1009.44 1009.44 1009.40 1009.56 1009.52 1009.52 1009.56 1009.36 1008.88 1008.52 1008.04 1007.52 1007.36 1007.28 1007.32 1007.48 1007.64 1007.80 1008.12 1008.52 1009.00 1009.48 1009.84 1010.12 1010.32 1011.28 1012.20 1012.80 1013.40 1013.92 1014.76 1015.20 1015.68 1016.08 1016.40 1017.20 1018.04 1018.16 1018.84 1019.48 1020.04 1020.40 1020.56 1020.80 1020.88 1021.00 1021.12 1021.16 1021.12 1021.28 1021.48 1021.48 1021.52 1021.72 1021.84 1021.88 1021.92
1010.24 1009.84 1009.48 1009.16 1009.04 1008.88 1008.72 1008.56 1008.40 1008.28 1008.28 1008.20 1008.12 1008.40 1008.52 1008.64 1008.88 1008.96 1008.88 1009.00 1009.04 1009.12 1009.16 1009.08 1008.80 1008.52 1008.08 1007.72 1007.24 1006.96 1006.88 1007.00 1007.24 1007.36 1007.68 1008.24 1008.72 1009.28 1009.84 1010.32 1010.64 1011.04 1011.52 1011.96 1012.52 1013.08 1013.40 1014.16 1014.80 1015.28 1015.64 1015.96 1016.48 1017.12 1017.92 1018.28 1018.64 1019.40 1019.72 1020.16 1020.40 1020.56 1020.68 1020.84 1020.84 1020.92 1021.04 1021.24 1021.36 1021.48 1021.60 1021.52 1021.48 1021.52
1009.56 1009.20 1008.88 1008.68 1008.48 1008.36 1008.28 1008.12 1008.04 1007.84 1007.68 1007.64 1007.68 1007.80 1007.92 1008.16 1008.28 1008.24 1008.28 1008.28 1008.44 1008.56 1008.36 1008.24 1008.20 1007.96 1007.52 1007.20 1006.84 1006.52 1006.68 1007.08 1007.56 1008.08 1008.44 1008.68 1009.12 1009.60 1010.12 1010.64 1011.08 1011.48 1011.88 1012.24 1012.68 1013.12 1013.44 1013.88 1014.48 1015.20 1015.88 1016.20 1016.32 1016.92 1017.12 1017.72 1018.32 1019.00 1019.12 1019.60 1020.24 1020.20 1020.36 1020.48 1020.60 1020.76 1020.88 1021.08 1021.04 1021.04 1021.04 1021.04 1021.08 1021.24
1008.96 1008.52 1008.20 1007.92 1007.64 1007.52 1007.40 1007.40 1007.20 1007.00 1006.80 1006.92 1007.04 1007.16 1007.36 1007.52 1007.40 1007.40 1007.48 1007.64 1007.80 1007.64 1007.60 1007.72 1007.52 1007.04 1006.84 1006.92 1007.00 1006.92 1006.80 1006.96 1007.40 1007.72 1008.28 1008.84 1009.52 1009.72 1010.20 1010.96 1011.76 1012.04 1012.20 1012.36 1012.72 1013.24 1013.60 1014.12 1014.60 1015.12 1015.80 1016.24 1016.32 1016.68 1016.96 1017.44 1018.12 1018.36 1018.64 1018.96 1019.12 1019.60 1020.00 1020.24 1020.44 1020.64 1020.72 1020.64 1020.64 1020.64 1020.72 1020.84 1020.84 1020.88
1008.00 1007.52 1007.24 1006.88 1006.60 1006.40 1006.24 1006.24 1006.16 1006.16 1006.08 1006.20 1006.16 1006.32 1006.44 1006.52 1006.56 1006.64 1006.72 1006.80 1006.88 1006.96 1007.12 1007.00 1006.80 1006.64 1006.88 1007.16 1007.24 1007.20 1007.08 1007.20 1007.48 1007.52 1007.84 1008.48 1009.28 1009.72 1010.28 1010.92 1012.00 1012.40 1012.64 1012.72 1012.92 1013.28 1013.72 1014.20 1014.64 1014.92 1015.52 1016.04 1016.40 1016.64 1016.92 1017.24 1017.64 1017.96 1018.40 1018.56 1018.92 1019.24 1019.48 1020.04 1020.40 1020.48 1020.32 1020.32 1020.40 1020.56 1020.68 1020.76 1020.88 1021.08
1007.20 1006.76 1006.32 1006.08 1005.80 1005.60 1005.44 1005.32 1005.44 1005.40 1005.40 1005.36 1005.40 1005.44 1005.44 1005.48 1005.64 1005.76 1005.92 1006.08 1006.08 1006.04 1006.16 1006.20 1006.32 1006.64 1006.92 1007.00 1007.04 1007.08 1007.20 1007.48 1007.68 1007.80 1007.88 1008.36 1009.32 1009.68 1010.16 1011.20 1012.20 1012.56 1012.96 1013.16 1013.32 1013.56 1013.92 1014.36 1014.76 1015.04 1015.16 1015.40 1015.88 1016.68 1017.00 1017.24 1017.28 1017.56 1018.12 1018.48 1018.68 1019.00 1019.36 1019.76 1020.00 1020.12 1020.16 1020.20 1020.40 1020.60 1020.72 1020.84 1020.96 1021.28
1006.56 1006.20 1005.80 1005.40 1005.08 1004.88 1004.64 1004.52 1004.44 1004.36 1004.44 1004.44 1004.48 1004.60 1004.60 1004.64 1004.80 1005.00 1005.24 1005.36 1005.40 1005.48 1005.56 1005.68 1005.96 1006.32 1006.64 1006.88 1007.08 1007.16 1007.56 1007.84 1008.00 1008.00 1008.24 1008.56 1008.88 1009.72 1009.64 1010.32 1011.40 1011.88 1012.52 1013.36 1013.72 1013.96 1014.24 1014.72 1015.12 1015.32 1015.68 1015.92 1015.96 1016.32 1016.88 1017.40 1017.48 1017.56 1017.92 1018.32 1018.60 1019.24 1019.60 1019.76 1019.80 1020.00 1020.16 1020.20 1020.48 1020.68 1020.76 1021.08 1021.20 1021.36
1006.08 1005.44 1004.96 1004.48 1004.28 1004.04 1003.92 1003.68 1003.52 1003.52 1003.52 1003.60 1003.72 1003.72 1003.72 1003.88 1004.04 1004.16 1004.36 1004.56 1004.72 1004.84 1005.00 1005.32 1005.68 1006.04 1006.40 1006.88 1007.04 1007.16 1007.44 1008.04 1008.36 1008.44 1008.24 1008.80 1009.04 1009.48 1010.24 1011.00 1011.84 1012.16 1012.36 1012.96 1013.64 1014.20 1014.68 1014.96 1015.36 1015.80 1016.00 1016.24 1016.52 1016.88 1016.68 1016.56 1017.48 1017.76 1018.08 1018.52 1018.92 1019.48 1019.84 1019.88 1019.92 1019.96 1019.96 1020.16 1020.44 1020.68 1020.96 1021.16 1021.32 1021.52
1005.08 1004.44 1004.04 1003.64 1003.48 1003.28 1003.08 1002.88 1002.68 1002.72 1002.80 1002.84 1002.92 1002.88 1002.96 1003.12 1003.32 1003.48 1003.60 1003.64 1003.96 1004.32 1004.52 1004.84 1005.16 1005.64 1006.04 1006.44 1006.88 1007.12 1007.44 1007.72 1008.32 1008.72 1009.00 1009.08 1009.24 1009.40 1009.92 1010.76 1011.72 1012.08 1012.36 1012.88 1013.44 1014.04 1014.20 1014.72 1015.12 1015.52 1015.76 1015.88 1016.32 1017.00 1017.12 1017.24 1017.24 1018.16 1018.60 1018.96 1019.20 1019.48 1019.80 1019.84 1019.84 1019.92 1020.04 1020.36 1020.52 1020.84 1021.16 1021.20 1021.24 1021.52
1004.04 1003.48 1003.04 1002.68 1002.48 1002.32 1002.24 1002.04 1002.00 1002.04 1002.12 1002.12 1002.12 1002.16 1002.40 1002.44 1002.40 1002.56 1002.64 1002.76 1003.24 1003.64 1004.04 1004.52 1005.04 1005.48 1005.84 1006.28 1006.72 1007.04 1007.40 1007.72 1008.16 1008.68 1009.12 1009.40 1009.68 1010.16 1010.44 1010.88 1011.40 1012.04 1012.36 1012.72 1013.36 1013.76 1013.88 1014.60 1014.84 1014.92 1015.20 1016.04 1016.64 1017.24 1017.76 1017.96 1017.84 1017.76 1018.40 1019.40 1019.56 1019.56 1019.72 1019.80 1019.92 1020.12 1020.28 1020.64 1020.80 1020.84 1021.04 1021.32 1021.52 1021.64
1003.36 1002.80 1002.32 1001.88 1001.64 1001.56 1001.52 1001.40 1001.44 1001.48 1001.56 1001.64 1001.72 1001.76 1001.72 1001.60 1001.48 1001.52 1001.68 1002.08 1002.48 1003.00 1003.40 1004.00 1004.68 1005.20 1005.72 1006.24 1006.72 1007.12 1007.44 1007.64 1008.32 1008.80 1009.24 1009.68 1009.92 1010.16 1010.68 1011.52 1011.92 1012.20 1012.64 1013.16 1013.36 1013.60 1013.88 1014.40 1014.64 1014.88 1015.40 1015.96 1016.68 1017.76 1018.48 1018.48 1018.48 1018.48 1018.32 1019.00 1019.60 1019.56 1019.56 1019.84 1020.20 1020.72 1021.00 1020.92 1020.92 1020.96 1021.12 1021.40 1021.72 1021.80
1003.64 1002.92 1002.28 1001.64 1001.24 1001.04 1001.04 1001.00 1001.04 1001.12 1001.20 1001.20 1001.28 1001.28 1001.24 1001.16 1001.16 1001.28 1001.60 1001.96 1002.40 1002.88 1003.36 1003.84 1004.52 1005.12 1005.60 1006.00 1006.56 1007.20 1007.64 1007.96 1008.28 1008.84 1009.36 1009.68 1010.08 1010.56 1010.64 1011.20 1012.00 1012.44 1012.76 1013.20 1013.40 1013.64 1013.80 1014.24 1014.60 1014.84 1015.00 1015.76 1017.00 1017.96 1018.56 1018.80 1018.80 1019.08 1019.08 1018.76 1019.16 1019.64 1019.76 1020.00 1020.48 1020.76 1021.00 1021.00 1020.96 1021.24 1021.32 1021.44 1021.64 1021.72
1004.08 1003.52 1002.88 1002.24 1001.72 1001.20 1000.80 1000.76 1000.76 1000.84 1000.88 1000.96 1001.00 1001.08 1001.20 1001.40 1001.40 1001.52 1001.76 1002.16 1002.52 1002.92 1003.48 1004.00 1004.56 1005.04 1005.56 1006.00 1006.24 1006.68 1007.36 1008.04 1008.60 1009.12 1009.56 1010.04 1010.28 1010.72 1011.28 1011.52 1012.08 1012.64 1012.84 1013.28 1013.52 1013.68 1014.00 1014.40 1014.64 1014.72 1015.00 1015.84 1016.52 1017.04 1017.64 1018.48 1019.36 1019.36 1019.36 1019.08 1019.04 1019.48 1019.92 1020.12 1020.56 1020.80 1020.80 1020.92 1021.08 1021.32 1021.48 1021.68 1021.76 1021.64
1004.36 1003.88 1003.44 1002.92 1002.36 1001.92 1001.40 1001.08 1000.92 1000.92 1001.00 1001.08 1001.20 1001.36 1001.40 1001.48 1001.56 1001.64 1001.84 1002.28 1002.68 1003.08 1003.48 1004.00 1004.60 1005.24 1005.76 1006.08 1006.48 1006.96 1007.48 1007.92 1008.48 1009.00 1009.48 1010.04 1010.64 1011.00 1011.44 1011.88 1012.04 1012.32 1012.64 1013.04 1013.32 1013.80 1014.12 1014.44 1014.68 1014.96 1015.32 1015.88 1016.64 1017.40 1017.84 1018.32 1019.04 1019.36 1019.28 1019.48 1019.64 1019.56 1019.92 1020.12 1020.40 1020.64 1020.96 1021.04 1021.12 1021.12 1021.32 1021.48 1021.48 1021.64
1004.84 1004.32 1003.92 1003.48 1003.00 1002.52 1002.08 1001.76 1001.52 1001.40 1001.44 1001.48 1001.56 1001.68 1001.84 1001.92 1002.04 1002.20 1002.16 1002.36 1002.80 1003.36 1003.88 1004.44 1004.84 1005.16 1005.64 1006.12 1006.44 1006.64 1007.44 1008.32 1008.92 1009.48 1009.88 1010.28 1010.80 1011.28 1011.76 1011.96 1012.36 1012.68 1012.92 1013.40 1013.76 1014.20 1014.52 1014.80 1015.04 1015.36 1016.00 1016.80 1017.20 1017.36 1017.68 1018.44 1019.28 1019.64 1019.80 1020.12 1020.04 1020.08 1020.16 1020.20 1020.36 1020.48 1020.72 1021.00 1021.12 1021.24 1021.44 1021.48 1021.48 1021.56
1005.32 1004.88 1004.44 1004.04 1003.60 1003.12 1002.64 1002.32 1002.04 1001.84 1001.84 1001.84 1001.92 1002.12 1002.32 1002.52 1002.72 1002.72 1002.92 1003.16 1003.28 1003.64 1004.12 1004.56 1005.00 1005.44 1005.88 1006.28 1006.68 1007.04 1007.40 1008.08 1008.76 1009.44 1009.88 1010.28 1010.88 1011.36 1011.68 1012.12 1012.64 1013.08 1013.52 1014.16 1014.52 1015.00 1015.36 1015.40 1015.52 1015.76 1016.24 1016.64 1016.84 1017.04 1018.24 1018.72 1019.40 1019.80 1019.92 1020.12 1020.20 1020.32 1020.44 1020.60 1020.72 1020.68 1020.68 1020.80 1021.08 1021.28 1021.40 1021.60 1021.68 1021.68
1005.84 1005.40 1005.00 1004.56 1004.08 1003.68 1003.32 1002.96 1002.60 1002.36 1002.28 1002.24 1002.32 1002.48 1002.68 1003.00 1003.24 1003.36 1003.48 1003.76 1004.04 1004.20 1004.56 1005.04 1005.36 1005.76 1006.20 1006.56 1007.00 1007.36 1007.88 1008.40 1008.84 1009.36 1009.88 1010.40 1010.80 1011.28 1011.88 1012.52 1013.20 1013.84 1014.36 1014.88 1015.28 1015.44 1015.60 1015.68 1015.72 1015.96 1016.28 1016.52 1016.96 1017.20 1018.32 1019.00 1019.36 1019.64 1019.88 1020.08 1020.20 1020.36 1020.48 1020.72 1020.76 1020.76 1020.88 1021.08 1021.20 1021.20 1021.24 1021.36 1021.64 1021.92
1006.40 1005.92 1005.48 1005.08 1004.68 1004.32 1004.00 1003.68 1003.36 1003.08 1002.84 1002.76 1002.80 1002.84 1003.04 1003.40 1003.80 1004.04 1004.12 1004.24 1004.44 1004.68 1005.00 1005.40 1005.76 1006.08 1006.44 1006.80 1007.28 1007.84 1008.24 1008.60 1009.08 1009.60 1010.16 1010.72 1011.16 1011.64 1012.40 1013.32 1013.92 1014.52 1014.88 1015.16 1015.40 1015.64 1015.80 1015.88 1015.96 1016.00 1016.28 1016.96 1017.36 1017.88 1018.76 1019.16 1019.52 1019.56 1019.60 1019.88 1020.12 1020.20 1020.16 1020.68 1020.96 1020.96 1021.04 1021.16 1021.32 1021.40 1021.40 1021.44 1021.52 1021.60
1006.92 1006.48 1006.08 1005.68 1005.32 1005.00 1004.72 1004.40 1004.12 1003.88 1003.68 1003.44 1003.32 1003.40 1003.60 1003.84 1004.12 1004.44 1004.64 1004.76 1004.96 1005.16 1005.36 1005.76 1006.00 1006.28 1006.64 1007.00 1007.36 1008.00 1008.60 1009.04 1009.52 1010.20 1010.72 1011.24 1011.84 1012.48 1013.20 1013.84 1014.28 1014.60 1014.96 1015.20 1015.44 1015.80 1015.96 1016.20 1016.44 1016.60 1016.96 1017.44 1017.68 1018.12 1018.60 1018.80 1019.20 1019.56 1019.76 1019.84 1019.92 1020.08 1020.16 1020.20 1020.40 1020.64 1020.76 1021.04 1021.44 1021.60 1021.68 1021.76 1021.72 1021.64
Wind_Speed
8 8 8 8 7 7 7 7 7 8 7 8 8 7 9 8 9 8 7 6 5 3 5 3 2 1 2 7 6 7 7 10 13 10 9 10 10 17 21 22 22 21 20 19 18 17 16 15 16 15 14 14 13 13 13 13 12 11 10 10 9 8 8 7 7 6 6 5 5 4 2 1 2 3
6 7 7 7 8 7 7 7 7 7 8 8 7 8 8 7 10 8 9 7 5 3 3 5 5 1 0 2 2 5 9 12 14 11 10 11 11 20 22 22 23 22 21 21 19 17 16 16 16 15 14 14 14 13 13 13 12 10 9 10 10 9 9 9 8 7 6 6 5 4 1 1 2 3
8 8 9 7 8 7 7 7 7 6 7 7 7 9 9 8 8 10 8 9 6 6 6 5 3 2 2 3 1 1 4 7 16 11 11 11 15 21 19 23 23 23 23 22 20 18 16 16 16 15 14 14 14 14 13 10 11 12 11 11 10 10 10 9 8 8 7 6 4 3 2 1 2 4
7 8 9 8 7 7 7 7 7 8 7 7 7 7 7 8 8 8 8 9 12 5 6 6 5 6 4 4 4 1 1 1 9 9 11 12 15 14 12 20 23 23 23 23 22 20 19 18 17 15 14 15 15 14 13 13 12 12 12 11 11 10 10 10 9 8 7 6 5 3 1 2 2 4
8 8 7 7 7 6 8 8 7 8 8 8 8 7 7 9 8 9 9 10 11 8 4 5 5 5 7 4 4 4 3 2 3 2 4 9 11 11 10 12 18 22 22 21 22 22 21 19 18 17 16 16 15 15 14 14 13 13 12 12 11 10 10 10 9 7 7 6 5 3 2 2 3 4
7 8 9 9 9 9 9 8 8 8 8 8 8 9 8 8 9 8 9 11 11 13 3 6 3 4 5 5 4 8 7 5 3 5 5 6 8 10 9 10 11 19 19 19 20 21 21 20 19 19 18 17 16 16 15 14 14 13 13 12 11 10 10 9 9 7 6 5 4 3 1 3 3 5
7 8 9 10 9 8 10 10 9 7 8 8 9 10 8 9 9 9 10 9 10 11 10 6 6 5 6 6 6 7 8 5 3 3 6 8 8 7 9 10 9 16 19 19 17 19 20 19 19 19 19 17 17 16 15 15 14 13 13 12 11 11 9 8 7 7 5 4 4 3 2 2 4 6
6 7 7 8 8 9 10 9 10 9 8 7 7 8 8 9 10 9 9 11 10 10 11 6 8 6 7 3 5 8 9 10 8 7 3 4 7 7 8 9 9 12 16 17 18 17 18 20 20 19 17 17 16 16 15 15 14 13 13 12 12 11 9 9 8 6 5 5 3 2 2 3 5 7
8 8 7 8 7 7 9 9 9 9 11 9 7 7 7 8 9 8 9 10 10 10 11 8 6 6 7 6 7 9 10 5 5 5 6 6 6 7 6 5 5 10 17 18 20 19 18 18 18 18 17 16 16 15 15 15 15 14 13 12 11 10 10 9 8 7 6 4 2 3 3 5 6 8
7 7 9 9 9 8 9 10 10 9 10 10 9 8 7 7 7 8 9 9 9 11 12 11 7 6 7 5 6 10 10 11 8 6 6 4 4 7 7 5 5 4 5 7 8 10 13 17 19 18 16 16 16 16 15 15 14 14 13 12 11 11 10 9 8 8 6 5 4 3 4 5 7 8
8 8 8 8 8 9 9 10 9 10 10 9 10 9 9 7 6 7 7 8 10 10 11 11 9 7 7 9 8 7 10 11 12 12 8 7 6 7 9 9 5 6 7 5 9 12 13 14 12 15 17 17 16 16 15 15 15 14 14 12 11 10 10 9 8 8 7 6 5 4 4 6 8 9
7 8 8 8 8 9 8 9 9 9 10 9 10 8 8 9 9 8 7 6 8 9 10 11 9 8 8 7 6 8 8 7 4 8 11 13 10 9 7 7 11 8 7 8 5 3 6 9 11 13 14 15 16 15 14 15 13 13 13 12 11 11 10 9 9 8 8 7 6 6 6 6 7 9
8 8 8 9 9 10 12 14 12 12 12 9 11 11 9 9 10 9 8 5 6 9 11 11 9 7 7 9 8 9 11 13 15 12 9 9 10 9 8 5 4 7 11 8 6 8 8 9 7 6 7 9 13 14 13 10 14 15 12 12 12 11 11 10 10 9 9 8 7 7 6 7 6 7
10 10 10 10 15 15 15 15 15 14 14 15 12 11 10 11 9 9 10 10 8 7 10 11 10 10 10 8 10 12 13 12 8 8 8 9 8 7 4 2 3 5 8 10 10 8 7 9 8 6 7 7 9 7 8 9 9 11 14 13 13 12 12 11 10 10 9 8 8 7 7 7 7 7
10 10 10 10 12 14 14 13 13 13 13 12 14 16 16 13 11 11 12 12 10 9 10 9 9 11 12 11 11 13 12 11 13 13 12 10 9 11 12 11 4 6 10 10 10 9 8 7 6 6 5 8 9 8 9 12 14 14 15 15 13 13 12 11 11 10 9 9 8 8 8 8 8 8
10 11 10 10 9 10 12 12 12 13 14 14 15 15 15 16 16 13 12 12 11 11 10 10 10 9 8 9 10 10 10 12 11 12 12 12 14 12 13 12 14 10 13 11 11 10 6 7 9 9 9 7 8 8 10 15 15 15 16 15 14 13 13 12 11 11 10 9 9 8 8 8 8 8
11 11 11 11 10 10 14 13 12 12 12 13 15 16 17 18 18 18 17 17 16 12 12 12 12 11 7 5 8 9 14 14 16 13 11 10 12 15 15 13 10 9 17 11 9 11 9 10 10 10 8 8 7 7 11 15 16 15 15 16 15 14 14 13 12 11 11 10 9 9 8 8 8 8
11 11 11 12 12 11 11 11 11 10 11 11 11 11 10 11 13 13 14 14 16 18 14 13 14 13 8 10 7 7 5 11 14 14 15 14 13 14 15 6 5 6 12 15 12 8 9 11 9 11 8 7 7 7 10 15 15 16 16 15 14 14 14 13 12 12 11 10 10 9 9 8 9 10
11 11 11 12 13 12 12 11 12 12 12 11 11 11 12 12 13 13 14 12 8 6 9 13 15 14 12 10 9 10 11 16 16 18 22 21 16 7 7 7 6 8 10 9 9 13 8 8 9 9 7 7 7 6 9 16 16 16 15 15 14 14 14 13 12 12 11 10 10 10 9 9 10 11
11 12 12 13 14 14 13 14 17 16 13 14 15 15 15 13 13 14 15 16 15 12 10 10 13 14 14 14 12 12 12 8 7 2 8 10 9 10 8 7 6 7 8 10 11 5 7 9 10 7 5 7 7 7 7 14 17 16 15 14 14 14 13 13 12 12 11 11 11 10 9 10 11 10
12 12 12 12 12 13 13 14 14 15 14 14 16 16 16 14 13 14 13 15 18 19 19 18 20 22 22 20 20 19 21 16 12 9 8 7 8 9 11 7 6 9 11 12 12 7 6 9 10 7 6 8 7 7 8 8 14 16 15 15 15 14 13 12 12 11 11 11 11 10 10 10 10 9
12 14 21 21 15 14 13 13 14 14 13 14 15 15 16 16 15 15 10 10 14 18 18 18 17 20 22 20 20 20 20 19 17 14 15 13 12 13 12 13 10 5 9 12 11 8 6 7 8 7 3 4 2 7 7 7 9 14 13 14 13 12 12 12 11 11 12 12 11 11 11 10 7 5
12 13 14 20 19 17 16 18 18 17 14 13 13 13 14 16 17 14 7 12 13 13 13 12 10 10 12 12 11 13 21 23 21 18 17 13 13 13 11 8 7 3 7 10 14 12 6 11 8 9 6 5 1 3 6 7 6 7 7 7 7 10 11 11 11 13 13 11 11 11 10 9 6 5
13 13 13 15 18 21 21 22 22 21 21 17 14 12 14 15 17 8 9 12 11 10 9 10 10 11 11 11 12 11 12 17 20 18 16 17 17 15 14 13 15 15 11 10 14 11 6 10 11 11 8 8 6 5 4 5 6 7 6 5 6 8 10 10 10 12 11 10 11 11 10 10 8 5
14 13 13 12 16 19 20 20 21 21 21 20 16 16 17 16 12 10 11 11 12 13 13 11 11 11 10 9 10 11 12 13 14 14 15 15 16 16 15 13 13 12 3 12 21 11 6 9 11 10 5 4 5 7 4 5 5 6 6 7 7 6 6 7 5 6 7 10 11 11 11 12 13 8
14 13 12 12 14 19 20 20 21 21 20 21 16 17 20 20 19 17 14 11 10 11 12 12 12 12 12 9 8 9 10 12 14 14 13 13 14 14 15 18 16 13 8 13 23 13 10 6 9 10 6 6 3 7 8 4 4 4 4 5 5 7 7 7 6 6 5 4 5 8 11 16 15 14
15 13 13 13 17 20 20 20 20 20 21 19 18 21 20 21 21 18 13 12 11 12 12 12 13 13 12 10 9 8 9 11 13 14 13 12 12 10 6 4 3 4 8 14 14 10 10 7 7 12 9 6 9 6 7 8 5 6 5 6 6 6 5 5 6 6 5 5 6 10 11 11 13 12
15 15 15 15 19 20 19 20 20 20 20 17 20 20 21 21 19 14 13 12 12 12 12 13 13 13 12 11 9 9 9 10 9 11 10 7 7 8 7 8 9 10 13 14 13 10 10 10 9 5 7 12 12 11 9 4 5 9 8 6 6 6 5 6 6 4 5 5 5 4 4 5 4 5
16 18 23 25 24 23 23 23 20 18 20 23 22 22 21 19 13 13 13 13 11 12 13 13 12 13 13 10 10 7 7 6 7 7 7 8 9 9 10 9 9 10 10 10 9 8 9 10 10 8 6 6 9 7 9 8 8 7 7 8 4 6 6 6 5 6 5 4 5 4 5 5 4 4
28 28 28 30 29 27 24 19 16 15 15 18 20 21 21 15 14 13 12 12 12 13 12 11 12 12 10 5 2 5 8 11 10 11 10 11 9 10 11 11 8 7 6 8 8 8 8 8 9 9 8 6 6 9 6 9 5 8 9 9 7 3 4 5 6 4 5 5 5 3 0 0 2 2
16 18 18 16 18 18 21 23 21 20 18 16 16 14 13 13 14 13 12 12 12 11 11 11 11 8 4 3 4 6 7 8 8 10 12 11 10 11 10 12 10 8 5 6 6 8 8 8 8 10 9 7 5 7 7 8 7 8 8 7 7 5 5 5 5 5 5 5 3 3 3 4 3 3
15 15 16 17 15 14 14 14 12 13 13 14 13 12 11 12 12 14 17 16 13 13 11 10 7 5 6 8 7 6 7 7 7 8 11 12 11 11 13 11 9 7 7 6 6 7 8 7 7 5 7 7 7 5 7 7 9 9 7 7 7 5 7 8 6 5 4 5 5 3 2 2 5 5
15 13 13 12 12 11 11 10 10 11 11 11 12 14 12 10 9 9 9 11 11 11 11 9 9 8 8 6 6 7 7 6 6 5 8 9 13 9 10 13 12 12 12 9 7 7 8 9 8 9 7 5 4 10 10 5 5 8 9 7 7 7 5 5 6 5 4 6 5 3 1 4 4 6
14 13 12 11 11 10 10 10 10 10 9 9 10 10 12 11 10 9 9 9 10 10 10 9 9 9 8 8 8 8 9 7 5 5 10 10 11 11 10 12 9 8 10 11 10 10 9 9 10 10 9 10 10 8 3 9 8 6 6 7 8 8 5 5 5 5 5 5 4 1 1 4 3 3
11 11 11 10 9 10 10 10 10 9 9 9 9 9 9 9 11 11 11 11 9 10 11 10 10 10 11 10 9 10 10 11 9 7 4 7 8 11 13 14 11 11 12 11 11 10 11 11 11 10 9 10 10 9 13 8 8 8 7 7 6 7 5 4 5 5 5 4 3 4 5 3 4 4
11 9 9 9 8 8 9 9 8 8 8 9 9 8 8 9 10 11 12 11 12 11 11 10 9 10 9 9 9 9 9 10 10 10 8 8 8 8 8 10 11 10 10 11 11 10 12 11 10 11 11 8 9 7 4 11 9 6 11 5 5 5 5 5 5 6 7 6 4 5 5 3 3 5
8 6 6 7 7 6 7 7 7 7 7 7 7 7 8 9 9 11 11 13 12 12 12 12 11 10 10 9 9 8 9 11 10 9 9 7 8 10 11 10 10 11 11 9 10 10 10 10 8 9 9 9 9 8 3 3 11 11 8 9 4 4 6 6 8 7 4 5 5 5 4 4 4 3
8 8 6 5 4 6 6 5 5 5 6 6 6 6 6 5 5 7 9 10 10 9 11 11 10 10 10 11 11 10 8 7 9 10 8 9 10 9 11 13 11 10 11 9 9 9 9 9 8 8 9 10 10 9 6 1 2 6 6 7 8 5 6 8 7 6 3 2 5 2 4 6 4 2
8 8 8 7 6 2 2 4 4 4 4 4 5 4 4 4 5 8 9 9 9 10 10 10 10 10 11 10 10 12 11 10 9 9 9 8 8 10 10 11 11 9 11 10 8 7 7 7 7 7 8 9 10 10 9 7 4 2 5 7 8 7 5 7 7 5 6 4 4 3 2 1 2 3
9 8 7 7 6 5 3 2 2 3 3 3 3 2 4 6 6 8 8 9 10 9 10 10 11 10 9 10 10 9 9 11 11 10 10 9 8 9 9 8 9 10 10 9 8 6 7 7 8 7 6 6 6 7 8 8 5 2 5 8 7 7 7 6 6 6 4 2 3 5 5 4 3 2
9 8 8 7 6 6 5 3 3 4 4 5 5 5 4 4 4 4 6 9 10 10 10 10 10 11 11 10 10 12 12 10 9 9 9 10 11 10 10 10 9 6 7 7 7 7 6 5 6 12 14 11 11 9 10 8 7 5 6 3 7 6 6 7 7 5 4 3 5 6 5 3 2 1
8 8 8 7 7 7 6 4 4 4 5 5 6 6 6 6 5 9 8 7 9 10 9 10 10 10 10 10 10 10 12 13 12 11 10 11 11 11 11 8 8 7 8 7 7 6 4 6 11 13 12 11 9 9 8 10 9 6 4 1 0 3 4 5 6 4 6 6 4 3 1 2 2 2
8 8 8 7 7 7 7 6 5 4 5 5 7 7 7 7 6 7 7 8 7 8 9 8 8 9 9 9 9 10 11 11 11 11 12 11 11 11 10 10 9 8 8 8 6 6 5 7 9 10 8 7 5 9 10 8 7 6 4 4 3 1 1 4 4 3 2 3 5 4 2 3 2 3
8 8 7 8 8 8 8 7 6 6 6 6 6 7 7 8 7 6 6 7 8 9 9 9 9 10 10 10 10 10 9 10 11 12 12 11 11 11 11 10 10 9 9 8 7 6 5 5 5 7 8 7 7 9 10 9 7 6 6 4 1 2 2 2 2 3 4 4 2 3 2 4 4 4
8 8 8 8 8 8 8 7 7 7 7 6 7 8 8 8 8 7 7 7 7 8 9 9 9 10 10 11 12 12 10 11 12 11 11 11 10 11 11 11 11 11 9 8 8 7 7 7 6 7 8 7 7 9 8 8 8 6 4 4 4 3 2 1 4 4 3 4 6 2 3 8 7 6
Wind_Direction
278 277 272 264 257 243 235 238 238 239 234 232 237 243 236 208 228 243 241 230 229 256 202 223 281 331 165 206 213 198 199 192 178 176 167 169 171 181 178 179 178 176 180 180 186 189 191 188 185 188 187 180 172 164 159 155 150 145 140 140 133 132 127 118 116 131 140 128 109 93 79 33 10 351
283 275 275 268 267 258 243 236 228 228 232 223 227 237 241 213 228 232 239 251 199 233 244 203 216 38 6 344 287 233 199 189 182 173 172 170 178 179 180 179 177 176 179 179 182 187 188 185 183 186 182 172 167 164 161 157 154 145 143 148 143 140 142 142 144 149 147 137 137 150 139 338 330 328
283 283 282 280 271 263 253 248 241 233 230 231 220 229 234 236 225 228 232 252 242 182 226 243 239 153 158 110 76 344 320 205 183 177 173 178 178 177 182 181 179 178 180 177 179 180 184 184 182 183 179 172 167 166 163 155 157 155 152 152 150 154 155 155 156 160 157 155 159 158 153 278 297 319
281 278 276 276 274 269 261 249 244 240 235 232 231 228 235 243 243 243 242 234 255 206 214 215 210 173 156 136 126 63 18 306 242 178 173 174 168 176 183 184 181 181 182 179 176 175 179 180 177 177 176 172 169 167 165 162 161 160 157 156 158 160 163 163 164 171 163 160 161 161 175 260 296 313
282 287 289 290 288 284 271 259 249 241 234 231 230 225 225 229 229 231 237 239 248 252 189 204 190 194 153 153 145 129 123 158 230 196 161 154 168 175 177 184 188 183 183 182 177 174 174 176 173 171 173 170 168 167 166 165 163 162 160 162 164 164 167 167 167 177 169 162 165 160 216 270 296 305
276 284 289 291 296 301 297 290 266 246 237 230 229 230 224 227 230 220 231 233 233 251 192 230 217 186 190 150 183 161 166 177 190 172 155 161 167 175 170 177 188 189 182 181 180 173 172 172 170 168 169 170 170 169 168 167 165 165 165 167 166 166 168 168 169 167 163 169 170 172 217 279 297 306
261 271 276 281 286 289 292 293 291 277 253 235 229 229 222 227 229 221 217 226 233 242 244 195 209 186 202 174 181 174 169 157 131 159 179 167 169 173 175 178 181 187 183 178 179 173 168 167 168 169 170 171 172 171 169 167 167 168 168 170 168 166 165 162 163 169 170 176 177 199 243 283 295 296
260 257 263 268 274 279 282 288 294 297 285 263 250 236 226 225 228 226 221 223 229 233 249 202 204 196 184 210 178 171 168 162 160 174 184 178 169 165 173 177 180 182 177 173 172 175 172 168 167 169 171 172 173 172 170 169 169 170 172 172 168 165 162 157 152 154 162 191 211 226 245 278 287 290
271 262 257 261 263 271 278 283 285 286 289 287 273 255 248 232 224 225 224 226 222 233 237 236 213 193 198 190 181 168 163 147 130 141 169 182 174 165 168 162 160 162 176 177 176 174 172 168 167 169 172 174 174 172 171 171 172 172 173 172 169 166 162 160 160 161 166 177 182 241 267 280 286 290
281 278 271 264 258 260 266 273 277 281 285 289 285 281 269 259 248 230 223 218 222 224 234 234 224 200 197 201 191 185 167 161 157 148 153 152 171 160 156 158 148 113 163 172 179 174 171 169 169 171 173 174 174 173 174 175 174 171 173 174 172 171 169 169 170 171 175 177 187 210 253 272 282 288
283 282 279 274 269 264 258 260 265 276 283 286 289 288 283 277 264 261 251 229 217 223 231 235 223 203 200 193 201 197 176 174 171 161 155 175 192 196 177 163 153 169 179 189 181 177 174 173 174 177 175 175 175 175 176 176 175 174 173 174 175 174 175 174 171 175 182 189 199 210 225 258 274 285
303 304 304 301 293 283 271 262 261 260 270 280 284 291 309 311 305 283 261 256 250 230 230 231 227 211 201 207 198 174 157 153 187 193 172 179 183 194 198 185 165 170 169 166 167 178 167 171 176 175 174 174 175 177 177 178 173 175 175 174 178 178 180 181 182 182 189 197 208 215 230 242 256 274
293 292 291 291 291 296 307 310 305 293 281 268 273 280 283 286 293 299 301 279 258 256 238 234 226 217 206 203 175 175 173 181 187 188 189 186 178 169 169 183 201 181 173 163 164 181 178 166 173 161 175 189 183 182 174 172 174 174 173 179 185 182 184 189 190 191 197 205 212 220 230 240 249 261
292 289 289 286 288 291 292 294 295 291 288 283 274 273 277 277 279 279 285 282 273 258 256 248 233 221 215 193 184 183 194 190 168 158 171 179 171 145 130 57 210 179 168 166 179 190 184 176 169 166 184 182 182 184 180 188 172 172 177 186 190 188 188 193 195 196 201 206 216 225 232 242 251 258
291 288 286 288 288 287 287 286 287 291 290 289 290 286 275 263 258 274 270 266 264 265 261 259 251 229 215 199 187 191 186 180 177 180 182 179 157 170 167 192 196 213 181 179 175 187 185 169 158 173 177 181 186 187 191 175 173 177 185 189 192 191 191 195 199 200 204 209 217 228 235 244 253 261
292 290 289 283 282 280 282 284 284 285 286 289 289 287 287 285 269 240 239 263 268 254 257 257 254 258 250 218 185 189 177 186 186 191 182 175 174 177 195 190 192 189 168 170 181 187 164 182 186 190 196 183 189 192 181 175 177 185 188 191 192 193 194 198 201 203 206 211 219 227 237 245 255 264
284 285 284 284 280 280 278 278 278 279 281 282 284 286 288 287 281 275 254 231 238 256 251 251 255 252 242 223 229 204 190 180 186 182 186 187 189 193 193 200 188 159 179 165 169 187 181 181 193 200 195 186 185 185 181 184 184 185 188 194 194 192 195 198 201 204 206 212 220 228 236 244 255 262
278 277 278 278 277 275 276 275 277 276 277 278 280 283 283 282 288 294 293 287 248 239 245 245 247 246 229 231 201 219 198 181 190 181 194 190 192 196 206 183 119 110 156 176 175 182 186 191 189 202 192 175 177 189 185 187 189 188 192 196 195 196 196 198 202 204 208 213 222 230 236 245 253 259
277 275 273 271 272 272 269 267 269 274 273 274 273 273 272 276 280 281 282 281 287 255 237 248 248 246 234 226 208 189 195 203 195 192 195 189 190 151 72 76 110 142 187 174 150 200 186 171 193 208 178 170 177 182 184 191 194 195 193 195 199 199 198 199 202 205 208 215 224 231 236 244 252 257
272 273 272 273 271 270 268 263 262 263 269 271 271 268 267 269 270 272 272 276 278 277 270 254 248 246 235 222 205 190 187 194 220 18 39 73 110 149 161 163 152 160 178 189 185 182 171 181 192 187 161 162 177 179 188 196 199 198 193 196 201 202 199 199 202 206 210 217 226 231 237 242 250 258
271 266 265 263 266 265 263 261 253 252 256 265 264 264 264 263 264 266 273 279 278 278 278 266 253 244 238 226 212 197 187 183 165 135 150 165 157 161 187 185 156 191 175 197 199 176 168 183 181 166 172 178 175 177 191 190 201 197 194 197 200 201 199 200 203 206 214 222 226 231 237 243 250 266
277 272 269 267 265 262 261 257 253 252 250 257 258 261 262 260 261 263 266 277 276 276 276 277 262 250 244 228 209 197 188 154 142 165 183 182 176 191 190 189 186 151 184 197 182 183 201 153 166 148 110 107 170 184 182 183 193 194 195 197 197 198 198 201 205 211 218 223 225 231 237 243 255 269
282 278 271 266 261 260 259 256 255 252 247 254 256 258 259 258 256 258 263 268 274 279 283 282 285 266 253 244 220 205 187 171 175 180 183 164 176 189 194 168 121 126 228 201 177 187 169 155 175 152 133 183 160 158 166 172 159 163 170 185 198 199 200 205 211 217 222 223 227 234 240 247 246 250
283 281 279 270 260 254 252 251 249 248 243 248 252 254 256 257 258 262 258 257 264 277 296 302 301 290 272 236 214 203 192 186 186 188 184 179 181 185 187 181 181 194 199 170 171 185 168 173 173 179 172 145 176 171 141 154 155 156 159 165 186 204 207 214 225 228 226 228 233 240 244 245 232 230
286 284 280 277 271 263 254 247 243 240 238 238 243 246 250 249 263 269 261 262 274 280 284 290 294 296 287 248 226 203 189 194 196 195 191 185 186 184 183 183 192 211 150 169 174 179 162 181 171 166 170 106 122 132 153 132 139 158 171 176 191 199 194 213 220 223 226 231 237 242 244 242 236 217
277 275 273 271 267 264 257 250 244 239 236 235 238 245 248 254 252 251 254 260 259 262 271 277 283 286 285 266 228 214 194 195 194 195 195 193 192 194 187 182 182 195 190 165 168 169 131 164 180 169 158 123 126 130 131 149 164 168 165 186 196 201 192 204 205 221 214 209 227 231 233 237 239 228
275 272 270 269 268 264 259 252 245 241 239 238 240 243 246 248 248 249 250 250 251 256 259 264 270 273 274 265 236 207 205 199 194 194 191 187 188 185 167 169 191 178 121 148 167 148 146 153 169 172 170 138 130 132 133 144 172 151 171 194 206 210 196 190 200 215 207 212 229 232 235 244 247 245
273 274 272 273 273 272 267 257 247 241 238 240 242 242 242 244 244 244 244 242 243 246 251 254 253 257 260 254 234 214 201 200 193 183 166 152 146 126 106 96 101 125 143 155 159 154 158 154 170 168 161 155 151 157 157 139 121 163 178 181 193 207 192 184 207 212 221 218 232 222 191 237 251 242
273 271 272 272 270 267 265 262 261 255 248 244 244 243 241 240 240 238 237 239 236 236 239 242 247 250 251 242 242 210 161 126 113 107 84 90 96 97 93 93 103 121 137 152 148 151 153 156 159 145 134 147 138 143 147 157 152 168 164 146 180 206 190 193 194 207 211 183 196 170 177 197 227 191
271 271 270 268 267 264 260 256 251 247 244 241 242 244 243 241 238 235 234 231 230 233 236 236 240 243 242 225 223 147 147 147 155 146 136 125 119 121 118 105 93 97 118 132 130 133 131 139 146 144 132 134 140 148 154 140 152 158 149 164 182 122 170 185 197 180 146 146 145 133 166 24 276 270
270 268 266 263 260 256 253 248 246 245 244 241 240 239 238 236 232 230 228 227 228 230 230 234 238 230 174 128 131 154 153 151 153 151 144 135 136 128 122 117 118 110 83 81 102 124 126 123 129 140 137 139 133 148 154 153 148 148 161 161 147 172 187 146 136 144 137 120 101 60 26 2 13 65
274 273 271 266 260 258 254 249 239 237 235 234 234 232 229 223 220 220 220 222 226 225 223 226 203 152 159 162 164 151 146 149 150 152 145 140 138 138 128 117 128 122 102 94 92 96 109 116 118 112 123 141 145 155 146 155 152 149 149 150 153 130 120 134 128 125 129 105 79 51 347 350 41 84
276 271 264 257 256 248 247 240 234 229 225 224 223 224 222 217 210 205 204 216 219 219 216 198 169 167 157 157 148 139 122 124 133 131 118 131 135 143 137 139 145 144 137 128 112 100 99 97 84 84 73 56 116 145 142 124 123 135 143 139 120 106 117 120 125 131 110 87 87 56 353 356 51 100
273 269 262 254 246 244 237 237 232 229 220 217 214 215 214 215 220 219 218 215 216 207 192 171 162 160 156 152 159 149 140 125 116 132 143 144 141 134 132 128 131 129 126 126 125 123 114 104 99 93 96 88 69 52 92 132 129 128 111 115 110 112 121 121 123 134 121 130 122 90 35 20 1 63
269 263 253 248 239 238 234 232 233 225 218 211 208 212 209 213 218 223 221 217 201 185 176 168 163 158 159 160 158 152 148 141 134 114 100 120 135 141 143 139 142 143 139 134 132 133 129 125 121 113 98 87 74 54 39 37 125 104 96 88 111 116 123 124 119 96 88 60 93 109 89 43 24 12
268 252 245 245 239 231 229 227 222 214 211 213 211 212 213 220 220 215 217 196 178 172 162 158 155 156 155 152 152 145 143 137 134 133 134 134 128 124 124 130 134 134 132 132 133 137 132 132 135 130 125 117 112 96 34 15 31 128 114 115 108 113 118 107 78 67 69 68 85 110 100 90 37 2
292 289 267 246 242 225 222 221 211 209 212 214 214 211 219 224 218 204 190 169 165 161 160 155 156 154 148 143 138 137 139 137 134 135 131 129 130 135 130 128 130 132 127 127 129 131 130 137 141 132 128 126 119 113 88 303 28 16 121 122 121 118 120 92 87 73 71 107 82 97 135 121 69 32
319 317 320 304 258 226 220 217 205 205 208 208 208 208 208 204 167 151 148 154 153 151 149 149 146 145 145 144 140 138 133 125 127 130 134 137 139 141 139 137 139 137 133 133 137 142 141 136 141 145 140 136 129 124 123 25 17 359 353 118 119 127 102 102 91 110 91 66 106 133 108 87 101 124
328 329 331 332 331 315 178 177 173 189 183 181 181 173 139 132 139 138 141 141 142 142 140 139 144 145 144 145 141 140 137 135 131 132 131 132 130 130 133 134 130 132 133 138 138 131 127 137 146 145 138 138 149 155 143 132 108 137 20 74 118 106 100 112 119 111 106 91 63 52 62 193 158 47
333 334 338 338 337 337 354 39 79 98 99 91 98 106 137 142 148 145 137 138 140 141 140 140 135 133 133 135 131 122 121 129 132 134 133 128 124 124 125 125 130 137 136 135 131 122 131 140 140 141 135 121 109 108 115 104 107 75 59 33 55 122 146 125 122 123 99 126 113 79 63 29 59 333
340 345 349 341 341 352 356 22 60 75 81 82 81 70 61 82 100 111 135 137 136 136 135 135 138 138 138 137 137 135 129 122 120 120 119 119 121 123 125 127 122 118 115 116 114 117 128 148 128 112 106 112 118 115 95 92 91 93 80 56 16 49 98 126 140 135 142 158 117 127 124 118 106 27
345 347 346 351 352 354 2 17 39 71 80 84 84 81 78 74 79 99 92 97 115 121 126 131 133 131 131 132 130 128 129 132 132 130 129 128 125 121 115 106 105 105 108 107 110 111 110 103 113 116 122 125 126 112 117 124 131 134 139 131 314 341 22 55 67 102 142 135 110 97 78 6 25 28
349 350 353 354 360 4 8 15 26 52 72 79 86 90 90 90 92 95 107 109 107 111 117 118 121 123 124 124 121 123 124 125 126 126 126 123 121 118 111 105 100 96 103 107 108 111 106 114 115 116 116 108 106 118 126 131 130 134 137 136 186 298 328 44 60 65 94 110 116 140 161 147 121 37
351 354 359 2 9 11 10 14 22 28 56 70 81 85 89 94 89 88 96 106 117 119 116 118 123 124 123 121 119 116 117 119 119 120 118 115 112 109 104 102 104 108 108 109 107 92 93 89 94 110 106 105 111 113 125 128 134 143 148 151 141 125 188 92 71 10 354 351 10 52 73 138 120 101
356 2 6 10 12 18 18 17 26 31 38 53 68 78 82 85 89 90 91 99 105 110 115 122 123 120 120 122 123 121 117 111 109 107 108 108 109 111 113 121 124 124 125 126 112 102 97 95 87 85 93 102 106 117 125 131 133 132 121 107 110 115 139 118 111 109 91 50 23 22 355 10 1 352